Address 0xddcbd1913ca06fc43a32c5efb82748301334bb7f 4

Txn Hash Method
Block
From
To
Value [Txn Fee]
0x0da854e28ea814670c5fd860499ed06dde33fdaa0ee05ca16533c7ead8f55f39Withdraw Balance109486872022-06-24 8:30:0013 days 5 hrs ago0xddcbd1913ca06fc43a32c5efb82748301334bb7fOUT0x85ee8c2b66d2659a94d820b63c8e8e376b4fc7a30 AVAX0.00116365 25
0x74a31e8bb0160e1e5ea35768e46e330c8f761d47179e217b9d4c4caebc9637a80x1ec57634109486582022-06-24 8:28:5913 days 5 hrs ago0xddcbd1913ca06fc43a32c5efb82748301334bb7fOUT0x85ee8c2b66d2659a94d820b63c8e8e376b4fc7a30 AVAX0.001359925 25
0xd6520fff786e7a5f6341ecd6cf78c2170ad11c224821f39e8a7b40ac0b895083Approve109486382022-06-24 8:28:1913 days 5 hrs ago0xddcbd1913ca06fc43a32c5efb82748301334bb7fOUT0x748b33652d3df39be54a1c3c378b7d9178d205430 AVAX0.00139796505 29.85
0xec5937316ef642cfd746984de132e7f9deae3af6bfbcb32d6a9051cd88320b1bDeposit109482702022-06-24 8:11:1413 days 6 hrs ago0xddcbd1913ca06fc43a32c5efb82748301334bb7fOUT0x46e2d0bba09b3c6c953f03b49f9897be60d2176d0 AVAX0.002423075 25
0x94f8ddee8fd52ab9a702cd8e4889d73cbe934744c50ea043c34cd001613a8f4bApprove109482642022-06-24 8:11:0213 days 6 hrs ago0xddcbd1913ca06fc43a32c5efb82748301334bb7fOUT0x5f559334bee112f98172887ba806427606c4b9c90 AVAX0.0017088015 34.7
0xb2192b09b8321da94a07bf115eab46e67a485e20599e03bba02aa6aeb33d33b4Safe Mint109482482022-06-24 8:10:0113 days 6 hrs ago0xddcbd1913ca06fc43a32c5efb82748301334bb7fOUT0xd34a53ff7464787014004b4e5ec071f1346033dc0 AVAX0.00433858 26.5
0xb325c18cb1b54bb6a31929dabe8240da2c27b4dd81086a0f75f8dd96b1e14e140x60806040109482462022-06-24 8:09:5613 days 6 hrs ago0xddcbd1913ca06fc43a32c5efb82748301334bb7fOUT Contract Creation0 AVAX0.0740098095 26.5
0xabfd477114a0179b09dadf44d48c65738180b737dda692f7a4e7a7bcf7647ccf0x1ec57634109482422022-06-24 8:09:4113 days 6 hrs ago0xddcbd1913ca06fc43a32c5efb82748301334bb7fOUT0x85ee8c2b66d2659a94d820b63c8e8e376b4fc7a30 AVAX0.001359925 25
0x53823090d4d9521021c964e33fb5d6da1c58722d42e391456f4fb30c116baa4cApprove109482372022-06-24 8:09:2613 days 6 hrs ago0xddcbd1913ca06fc43a32c5efb82748301334bb7fOUT0x748b33652d3df39be54a1c3c378b7d9178d205430 AVAX0.0012410745 26.5
0x9d0c7da04899a3b1c442b7c22b3e6ba72060e1861e6a24898ed088462cc2feb4Safe Mint109482132022-06-24 8:07:3613 days 6 hrs ago0xddcbd1913ca06fc43a32c5efb82748301334bb7fOUT0x5f559334bee112f98172887ba806427606c4b9c90 AVAX0.004887042 29.85
0xca2ce97630163e7d9811fc356acce731f3c05c527808f03f412d9360d8e000910x60806040109482122022-06-24 8:07:3213 days 6 hrs ago0xddcbd1913ca06fc43a32c5efb82748301334bb7fOUT Contract Creation0 AVAX0.0969109581 34.7
0xd62869e1abeb11dd7141f71e610a42cb3316f801b3ca37db39743f9974bd1223Transfer109471412022-06-24 7:02:4213 days 7 hrs ago0xddcbd1913ca06fc43a32c5efb82748301334bb7fOUT0x748b33652d3df39be54a1c3c378b7d9178d205430 AVAX0.0009725375 27.5
0x8e2fd9cf88c31d68b23578e028222aef155ba31ea1bc173e4fafa0d10aacf15bTransfer109467992022-06-24 6:44:1313 days 7 hrs ago0xddcbd1913ca06fc43a32c5efb82748301334bb7fOUT0x748b33652d3df39be54a1c3c378b7d9178d205430 AVAX0.0014424575 27.5
0x944e47ca82f3f548e2f711466454d8b7bc69ea528ec69b6e9d88bfdc13f15939Approve109467852022-06-24 6:43:1313 days 7 hrs ago0xddcbd1913ca06fc43a32c5efb82748301334bb7fOUT0x748b33652d3df39be54a1c3c378b7d9178d205430 AVAX0.0012879075 27.5
0x2894b1a5f7f0da9f01f83d55a4adaba4a53d1e1f5beae601f401c6197120df96Transfer109409792022-06-24 0:14:2313 days 13 hrs ago0xddcbd1913ca06fc43a32c5efb82748301334bb7fOUT0xba6ed7a5f32031d4acbdc9c8dc87d852485860e39 AVAX0.0005565 26.5
0x8bef827d1de2360cbefda8fb8243e82649a72e5c8a219d4b2b36e8f0494ee33b0x60806040109404352022-06-23 23:02:0713 days 15 hrs ago0xddcbd1913ca06fc43a32c5efb82748301334bb7fOUT Contract Creation0 AVAX0.07991181 27.5
0x2f3fda8b6797622deb1d2ea3ce6ae7d3cc22916023d2ef3ab4dec32b43bf9df20x60806040109404002022-06-23 23:00:4113 days 15 hrs ago0xddcbd1913ca06fc43a32c5efb82748301334bb7fOUT Contract Creation0 AVAX0.06965002 27.5
0xfe5efe9a64c083e8423d133b6f848e950e03e6755f33eb3a3b977f3ec9312491Transfer109385322022-06-23 19:39:2213 days 18 hrs ago0xddcbd1913ca06fc43a32c5efb82748301334bb7fOUT0xba6ed7a5f32031d4acbdc9c8dc87d852485860e32 AVAX0.0005565 26.5
0xa3961f38ff27ae54989607d7c4f4a18d3e5c912ce66c9d22265bbed8450903e80x1ec57634109317262022-06-23 13:25:0514 days 47 mins ago0xddcbd1913ca06fc43a32c5efb82748301334bb7fOUT0x85ee8c2b66d2659a94d820b63c8e8e376b4fc7a30 AVAX0.001359925 25
0xe45b9c412cf9d8dd16eae572db7bd7a6841fc1f54897d9cc7391465e6f5eb7d3Approve109317212022-06-23 13:24:4914 days 47 mins ago0xddcbd1913ca06fc43a32c5efb82748301334bb7fOUT0x748b33652d3df39be54a1c3c378b7d9178d205430 AVAX0.001384541073 29.563365
0x7b96f887a281d3a330741c260a481d640fcb18bcf34772e54c5c56697f6b85a10x1ec57634109314962022-06-23 13:14:0014 days 58 mins ago0xddcbd1913ca06fc43a32c5efb82748301334bb7fOUT0x85ee8c2b66d2659a94d820b63c8e8e376b4fc7a30 AVAX0.001359625 25
0x69e6fa5ac764ae03467817172bc5cb8b1086dd6a31c2c5b9ec5c2195185f856bApprove109314932022-06-23 13:13:5414 days 58 mins ago0xddcbd1913ca06fc43a32c5efb82748301334bb7fOUT0x748b33652d3df39be54a1c3c378b7d9178d205430 AVAX0.001390794394 29.7045
0xa7bf48f6f78873ed37e39f699569d3590a8bb6b7a3cfd54fa0328c6745f0915a0x1ec57634109312432022-06-23 13:03:1914 days 1 hr ago0xddcbd1913ca06fc43a32c5efb82748301334bb7fOUT0x85ee8c2b66d2659a94d820b63c8e8e376b4fc7a30 AVAX0.001359925 25
0xebaa2e84c435ff5396758a3d987be3507e7b1372fd90612da0cf273f37c871d7Approve109312372022-06-23 13:03:0614 days 1 hr ago0xddcbd1913ca06fc43a32c5efb82748301334bb7fOUT0x748b33652d3df39be54a1c3c378b7d9178d205430 AVAX0.001384541073 29.563365
0xb00dde9d5bbdd704ec104d30565073180fed1441e77bf900f78f9b03a43a9e940x1ec57634109311882022-06-23 13:00:4214 days 1 hr ago0xddcbd1913ca06fc43a32c5efb82748301334bb7fOUT0x85ee8c2b66d2659a94d820b63c8e8e376b4fc7a30 AVAX0.0024360875 27.5
[ Download CSV Export 
Parent Txn Hash Block From To Value
Loading

Contract Name:
0

Compiler Version
0

Optimization Enabled:
0

Other Settings:
-NA-
Block Transaction Gas Used Reward
Age Block Fee Address BC Fee Address Voting Power Jailed Incoming
Block Uncle Number Difficulty Gas Used Reward
Loading